Regional Weather Roundup
Issued by NWS

Home | Current Version | Previous Version | Graphics & Text | Print | Product List | Glossary On
Versions: 1 2 3 4 5 6 7 8 9 10 11 12 13 14 15 16 17 18 19 20 21 22 23 24 25 26 27 28 29 30 31 32 33 34 35 36 37 38 39 40 41 42 43 44 45 46 47 48 49 50
000
ASUS43 KLSX 300059
RWRMO

WEATHER SUMMARY FOR MISSOURI
NATIONAL WEATHER SERVICE SPRINGFIELD MO
800 PM CDT WED OCT 29 2014

NOTE: "FAIR" INDICATES FEW OR NO CLOUDS BELOW 12,000 FEET WITH NO
       SIGNIFICANT WEATHER AND/OR OBSTRUCTIONS TO VISIBILITY.
       CURRENT SKY AND/OR WEATHER CONDITIONS ARE NOT AVAILABLE FOR
       CHILLICOTHE AND FARMINGTON.

MOZ001>031-035>038-043-044-053-054-300200-
...NORTHERN AND WESTERN MISSOURI...

CITY           SKY/WX    TMP DP  RH WIND       PRES   REMARKS
KANSAS CTY INT CLEAR     49  34  56 SE7       30.12F
KANSAS C DTWN  CLEAR     56  33  42 CALM      30.13S
LEE`S SUMMIT   CLEAR     55  33  43 SE5       30.14S
ST JOSEPH      CLEAR     44  33  65 SE3       30.12F
CHILLICOTHE      N/A     44  37  76 CALM      30.16S
KIRKSVILLE     CLEAR     41  36  82 CALM      30.16R

$$
MOZ066>068-077>081-088>096-101>105-300200-
...SOUTHWEST MISSOURI...

CITY           SKY/WX    TMP DP  RH WIND       PRES   REMARKS
SPRINGFIELD    CLEAR     49  38  65 CALM      30.16R
JOPLIN         CLEAR     50  41  71 E3        30.15S

$$
MOZ032>034-039>042-045>050-055>058-069>072-300200-
...CENTRAL MISSOURI...

CITY           SKY/WX    TMP DP  RH WIND       PRES   REMARKS
COLUMBIA       CLEAR     48  33  56 CALM      30.16S
JEFFERSON CITY CLEAR     47  34  60 CALM      30.16S
ROLLA          CLEAR     42  32  67 CALM      30.14S
SEDALIA        FAIR      46  36  68 SE3       30.16S
OSAGE BEACH    CLEAR     45  32  61 CALM      30.16S

$$
MOZ051-052-059>065-300200-
...EAST CENTRAL MISSOURI...

CITY           SKY/WX    TMP DP  RH WIND       PRES   REMARKS
ST LOUIS INTL  CLEAR     51  37  58 N5        30.16S
SPIRIT OF STL  CLEAR     45  38  76 CALM      30.15S
ST CHARLES     CLEAR     48  37  65 CALM      30.16S

$$
MOZ072>076-082>087-097>100-106>115-300200-
...SOUTH CENTRAL AND SOUTHEAST MISSOURI...

CITY           SKY/WX    TMP DP  RH WIND       PRES   REMARKS
CAPE GIRARDEAU CLEAR     46  38  73 N5        30.14S
FARMINGTON     CLEAR     46  30  53 CALM      30.17S
POPLAR BLUFF   CLEAR     51  33  50 NW3       30.14R
WEST PLAINS    CLEAR     47  35  63 CALM      30.17R

$$



USA.gov is the U.S. government's official web portal to all federal, state and local government web resources and services.